TimeEDT,TemperatureF,Dew PointF,Humidity,Sea Level PressureIn,VisibilityMPH,Wind Direction,Wind SpeedMPH,Gust SpeedMPH,PrecipitationIn,Events,Conditions,WindDirDegrees,DateUTC
12:15 AM,37.9,18.9,46,30.16,10.0,Calm,Calm,-,N/A,,Unknown,0,2013-04-12 04:15:00
12:35 AM,37.4,23.0,56,30.16,10.0,Calm,Calm,-,N/A,,Unknown,0,2013-04-12 04:35:00
1:15 AM,37.4,20.5,51,30.15,10.0,Calm,Calm,-,N/A,,Unknown,0,2013-04-12 05:15:00
1:35 AM,36.5,25.3,64,30.16,10.0,Calm,Calm,-,N/A,,Unknown,0,2013-04-12 05:35:00
1:55 AM,36.0,26.6,69,30.16,10.0,Calm,Calm,-,N/A,,Unknown,0,2013-04-12 05:55:00
2:15 AM,36.1,25.0,64,30.14,10.0,Calm,Calm,-,N/A,,Unknown,0,2013-04-12 06:15:00
2:35 AM,36.3,24.6,63,30.15,10.0,Calm,Calm,-,N/A,,Unknown,0,2013-04-12 06:35:00
2:55 AM,37.4,19.2,48,30.15,10.0,East,4.6,-,N/A,,Unknown,100,2013-04-12 06:55:00
3:15 AM,37.9,16.7,42,30.16,10.0,East,4.6,-,N/A,,Unknown,100,2013-04-12 07:15:00
3:35 AM,37.6,16.7,43,30.15,10.0,East,4.6,-,N/A,,Unknown,90,2013-04-12 07:35:00
3:55 AM,37.4,17.1,44,30.15,10.0,East,6.9,-,N/A,,Unknown,100,2013-04-12 07:55:00
4:15 AM,36.7,18.5,48,30.16,10.0,East,5.8,-,N/A,Rain,Light Rain,90,2013-04-12 08:15:00
4:35 AM,35.6,19.9,53,30.17,10.0,East,6.9,-,N/A,Rain,Light Rain,100,2013-04-12 08:35:00
4:55 AM,34.3,22.3,61,30.19,10.0,ESE,6.9,-,N/A,,Unknown,120,2013-04-12 08:55:00
5:15 AM,33.1,25.7,74,30.19,7.0,ESE,4.6,-,N/A,,Unknown,110,2013-04-12 09:15:00
5:35 AM,32.2,27.1,82,30.19,5.0,East,4.6,-,0.01,,Unknown,90,2013-04-12 09:35:00
5:55 AM,32.0,27.5,83,30.19,5.0,East,3.5,-,0.02,,Unknown,100,2013-04-12 09:55:00
6:15 AM,32.0,27.3,83,30.20,10.0,East,3.5,-,0.01,,Unknown,100,2013-04-12 10:15:00
6:35 AM,32.0,26.4,80,30.20,7.0,ESE,6.9,-,0.01,,Unknown,110,2013-04-12 10:35:00
6:55 AM,31.6,26.1,80,30.20,10.0,SE,3.5,-,0.01,,Unknown,130,2013-04-12 10:55:00
7:15 AM,31.5,25.7,79,30.19,10.0,ESE,4.6,-,N/A,,Unknown,120,2013-04-12 11:15:00
7:35 AM,31.5,25.9,80,30.19,7.0,ESE,5.8,-,N/A,,Unknown,110,2013-04-12 11:35:00
7:55 AM,31.1,26.8,84,30.19,5.0,East,5.8,-,N/A,,Unknown,90,2013-04-12 11:55:00
8:15 AM,30.7,26.1,83,30.19,4.0,East,8.1,-,0.01,,Unknown,90,2013-04-12 12:15:00
8:35 AM,30.6,25.5,82,30.19,10.0,East,6.9,-,0.01,,Unknown,100,2013-04-12 12:35:00
8:55 AM,30.6,25.5,82,30.17,10.0,East,5.8,-,0.01,,Unknown,90,2013-04-12 12:55:00
9:15 AM,30.6,24.1,77,30.16,10.0,East,11.5,17.3,N/A,,Unknown,90,2013-04-12 13:15:00
9:35 AM,30.6,24.4,78,30.15,10.0,East,6.9,-,N/A,,Unknown,90,2013-04-12 13:35:00
9:55 AM,30.7,24.4,77,30.15,10.0,East,6.9,-,N/A,,Unknown,100,2013-04-12 13:55:00
10:15 AM,30.9,23.9,75,30.15,10.0,East,8.1,-,N/A,,Unknown,90,2013-04-12 14:15:00
10:35 AM,31.1,22.6,71,30.12,10.0,East,9.2,17.3,N/A,,Unknown,100,2013-04-12 14:35:00
10:55 AM,31.1,23.0,72,30.10,10.0,East,11.5,-,N/A,,Unknown,100,2013-04-12 14:55:00
11:15 AM,31.1,23.4,73,30.09,10.0,East,8.1,-,N/A,,Unknown,100,2013-04-12 15:15:00
11:35 AM,31.1,23.4,73,30.09,10.0,ESE,11.5,16.1,N/A,,Unknown,110,2013-04-12 15:35:00
11:55 AM,31.1,25.3,79,30.09,4.0,ESE,8.1,-,N/A,,Unknown,110,2013-04-12 15:55:00
12:15 PM,30.9,25.7,81,30.08,3.0,East,6.9,-,0.02,Snow,Light Snow,100,2013-04-12 16:15:00
12:35 PM,31.1,27.5,87,30.06,7.0,East,8.1,-,0.03,,Unknown,100,2013-04-12 16:35:00
12:55 PM,31.3,27.3,85,30.05,3.0,East,13.8,-,0.06,Snow,Light Snow,90,2013-04-12 16:55:00
1:15 PM,31.1,27.9,88,30.04,2.5,East,9.2,-,0.04,Snow,Light Snow,100,2013-04-12 17:15:00
1:35 PM,31.1,28.2,89,30.04,1.5,East,8.1,-,0.09,Snow,Light Snow,100,2013-04-12 17:35:00
1:55 PM,31.1,28.4,90,30.02,1.8,East,10.4,16.1,0.12,Snow,Light Snow,90,2013-04-12 17:55:00
2:15 PM,31.3,28.4,89,30.00,2.0,East,6.9,-,0.02,Snow,Light Snow,100,2013-04-12 18:15:00
2:35 PM,31.5,28.4,88,30.02,2.0,East,9.2,-,0.03,Snow,Light Snow,100,2013-04-12 18:35:00
2:55 PM,31.5,28.6,89,30.02,2.0,East,9.2,-,0.04,Snow,Light Snow,100,2013-04-12 18:55:00
3:15 PM,31.6,28.9,90,30.02,2.5,East,6.9,-,N/A,,Mist,100,2013-04-12 19:15:00
3:35 PM,31.3,29.3,92,30.01,0.8,East,6.9,-,N/A,Snow,Light Snow,100,2013-04-12 19:35:00
3:55 PM,31.1,29.8,95,30.00,1.0,ESE,5.8,-,N/A,Snow,Light Snow,110,2013-04-12 19:55:00
4:15 PM,31.3,30.0,95,29.98,1.8,ESE,4.6,-,N/A,Snow,Light Snow,110,2013-04-12 20:15:00
4:35 PM,31.5,29.8,94,29.98,3.0,East,5.8,-,N/A,Snow,Light Snow,90,2013-04-12 20:35:00
4:55 PM,31.8,29.7,92,29.97,3.0,ESE,3.5,-,N/A,,Unknown,120,2013-04-12 20:55:00
5:15 PM,31.8,29.8,92,29.96,4.0,ESE,5.8,-,N/A,,Mist,120,2013-04-12 21:15:00
5:35 PM,32.0,30.0,92,29.96,2.5,ESE,4.6,-,N/A,,Unknown,120,2013-04-12 21:35:00
5:55 PM,32.0,30.2,93,29.95,2.0,ESE,4.6,-,N/A,,Unknown,120,2013-04-12 21:55:00
6:15 PM,32.0,30.6,94,29.95,3.0,ESE,5.8,-,N/A,,Unknown,120,2013-04-12 22:15:00
6:35 PM,32.0,30.6,94,29.95,2.5,East,6.9,-,N/A,,Unknown,100,2013-04-12 22:35:00
6:55 PM,32.0,30.7,95,29.94,4.0,ESE,5.8,-,N/A,,Unknown,110,2013-04-12 22:55:00
7:15 PM,32.2,30.2,92,29.93,7.0,East,4.6,-,N/A,,Unknown,90,2013-04-12 23:15:00
7:35 PM,32.0,30.2,93,29.92,7.0,ESE,4.6,-,N/A,,Unknown,120,2013-04-12 23:35:00
7:55 PM,32.0,30.2,93,29.91,10.0,ESE,4.6,-,N/A,,Unknown,120,2013-04-12 23:55:00
8:15 PM,32.2,30.7,94,29.92,5.0,ESE,4.6,-,N/A,,Unknown,120,2013-04-13 00:15:00
8:35 PM,32.0,30.7,95,29.91,5.0,ESE,4.6,-,N/A,Snow,Light Snow,120,2013-04-13 00:35:00
8:55 PM,32.0,30.7,95,29.91,5.0,ESE,4.6,-,N/A,Snow,Light Snow,120,2013-04-13 00:55:00
9:15 PM,32.2,30.7,94,29.91,7.0,SE,3.5,-,N/A,,Unknown,130,2013-04-13 01:15:00
9:35 PM,32.4,30.9,94,29.91,10.0,ESE,4.6,-,N/A,,Unknown,120,2013-04-13 01:35:00
9:55 PM,32.5,30.7,93,29.90,10.0,Calm,Calm,-,N/A,,Unknown,0,2013-04-13 01:55:00
10:15 PM,32.9,30.9,92,29.90,10.0,SE,3.5,-,N/A,,Unknown,130,2013-04-13 02:15:00
10:35 PM,32.5,30.9,94,29.89,10.0,Calm,Calm,-,N/A,,Unknown,0,2013-04-13 02:35:00
10:55 PM,32.9,30.9,92,29.87,10.0,ESE,3.5,-,N/A,,Unknown,120,2013-04-13 02:55:00
11:15 PM,33.8,30.2,87,29.88,10.0,ESE,3.5,-,N/A,,Unknown,120,2013-04-13 03:15:00
11:35 PM,33.3,30.6,90,29.87,10.0,SSE,4.6,-,N/A,,Unknown,150,2013-04-13 03:35:00
11:55 PM,32.9,30.9,92,29.86,10.0,Calm,Calm,-,N/A,,Unknown,0,2013-04-13 03:55:00